Regional Weather Roundup
Issued by NWS

Home | Current Version | Previous Version | Graphics & Text | Print | Product List | Glossary On
Versions: 1 2 3 4 5 6 7 8 9 10 11 12 13 14 15 16 17 18 19 20 21 22 23 24 25 26 27 28 29 30 31 32 33 34 35 36 37 38 39 40 41 42 43 44 45 46 47 48 49 50
000
ASUS43 KMKX 180711
RWRWI

WISCONSIN REGIONAL WEATHER ROUNDUP
NATIONAL WEATHER SERVICE MILWAUKEE/SULLIVAN WI
100 AM CST WED JAN 18 2017

NOTE: "FAIR" INDICATES FEW OR NO CLOUDS BELOW 12,000 FEET WITH NO
SIGNIFICANT WEATHER AND/OR OBSTRUCTIONS TO VISIBILITY.

WIZ001-002-006>008-014>016-023>028-180800-
NORTHWEST WISCONSIN

CITY           SKY/WX    TMP DP  RH WIND       PRES   REMARKS
SUPERIOR ARPT  CLOUDY    25  24  93 W8        29.88S WCI  17
ASHLAND        CLOUDY    27  24  89 SW15      29.87F WCI  15
HAYWARD        CLOUDY    29  27  92 SW10      29.91F FOG     WCI  20
SIREN          CLOUDY    28  26  94 SW5       29.92F WCI  23
CUMBERLAND     CLOUDY    30  28  93 SW15      29.93S FOG     WCI  19
RICE LAKE      CLOUDY    30  30 100 S8        29.96F FOG     WCI  23
CHETEK         CLOUDY    30  30 100 SW5       29.95F FOG     WCI  25
LADYSMITH      FOG       30  29  98 SW6       29.95F VSB 1/2 WCI  24
EAU CLAIRE     CLOUDY    31  31 100 SW13      29.98S FOG     WCI  21
MENOMONIE      CLOUDY    32  31  98 MISG      29.98S
NEW RICHMOND   CLOUDY    29  28  97 S10       29.97S FOG     WCI  20
OSCEOLA        CLOUDY    29  29 100 S6        29.98F WCI  23
$$

WIZ003>005-009-010-017-018-180800-
NORTH CENTRAL WISCONSIN

CITY           SKY/WX    TMP DP  RH WIND       PRES   REMARKS
MANITOWISH WTR CLOUDY    16  16 100 CALM      29.88F
ARBOR VITAE    CLOUDY    19  17  91 CALM      29.89S
WOODRUFF       CLOUDY    19  17  91 CALM      29.89S
RHINELANDER    CLOUDY    25  24  96 W3        29.91R
EAGLE RIVER    CLOUDY    15  14  95 CALM      29.89S
LAND O LAKES   CLOUDY    12  10  90 CALM      29.90R
PHILLIPS       CLOUDY   N/A N/A N/A SW3       29.91S
TOMAHAWK       CLOUDY    28  27  96 CALM      29.92S
MEDFORD        FOG       27  26  99 SW7       29.93S VSB 1/4 WCI  19
MERRILL        FOG       27  27 100 CALM        N/A  VSB 3/4
$$

WIZ029-030-035-036-043>047-180800-
CENTRAL WISCONSIN

CITY           SKY/WX    TMP DP  RH WIND       PRES   REMARKS
WAUSAU         CLOUDY    28  27  96 CALM      29.94R FOG
MOSINEE        FOG       30  30 100 SW5       29.96S VSB 1/4 WCI  25
MARSHFIELD     FOG       29  28  96 W9        29.95R VSB 1/4 WCI  20
STEVENS POINT  FOG       30  30 100 SW7       29.97R VSB 3/4 WCI  23
WAUPACA        CLOUDY    35  33  94 CALM      29.97R FOG
WAUTOMA        CLOUDY    33  32  96 W9        29.98S FOG     WCI  25
WISC RAPIDS    FOG       32  32 100 W9        29.99R VSB 1/2 WCI  24
CAMP DOUGLAS   FOG       33  32  99 W5        29.99S VSB 1   WCI  28
$$

WIZ011>013-019>022-031-037>040-048>050-180800-
NORTHEAST WISCONSIN

CITY           SKY/WX    TMP DP  RH WIND       PRES   REMARKS
ANTIGO         FOG       21  20  98 CALM      29.92S VSB 1/4
SHAWANO        FOG       31  30  96 CALM      29.94F VSB 1/4
OCONTO         CLOUDY    33  33  99 CALM      29.94S VSB 3/4
STURGEON BAY   FOG       33  33 100 W6        29.95S VSB 1/4 WCI  28
GREEN BAY      FOG       35  34  96 SW5       29.95S VSB 1/2 WCI  31
MANITOWOC      CLOUDY    34  33  96 W7        29.96R FOG     WCI  28
APPLETON       FOG       32  32 100 W8        29.94S VSB 1/4 WCI  25
CLINTONVILLE   CLEAR     32  32 100 W5        29.94S FOG     WCI  27
OSHKOSH        CLOUDY    34  33  96 W6        29.96R FOG     WCI  29
$$

WIZ032>034-041-042-053>061-180800-
SOUTHWEST WISCONSIN

CITY           SKY/WX    TMP DP  RH WIND       PRES   REMARKS
LA CROSSE      CLOUDY    35  32  88 W6        30.03R WCI  30
SPARTA         FOG       32  32 100 W5        30.02S VSB 1/2 WCI  27
VIROQUA        CLOUDY    32  32 100 W9        29.99S VSB<1/4 WCI  24
BOSCOBEL       CLOUDY    35  33  92 W8        30.04S WCI  29
PRAIRIE DU CHI CLOUDY    33  32  96 W5        30.05R WCI  29
PLATTEVILLE    CLOUDY    34  34 100 W7        30.03S VSB 1   WCI  28
$$

WIZ056-057-062-063-064-067-068-180800-
SOUTH CENTRAL WISCONSIN

CITY           SKY/WX    TMP DP  RH WIND       PRES   REMARKS
REEDSBURG      CLOUDY    32  32 100 W6        30.00R FOG     WCI  27
BARABOO/DELLS  FOG       33  32  99 W5        29.99S VSB 1/2 WCI  28
LONE ROCK      CLOUDY    34  32  92 W8        30.03R FOG     WCI  27
MINERAL POINT  FOG       34  34 100 W8        30.01S VSB 1/2 WCI  27
MADISON        CLOUDY    34  33  96 VRB3      30.01R FOG
MIDDLETON      CLOUDY    35  35 100 W6        30.00S WCI  30
WATERTOWN      CLOUDY    33  33 100 SW3       29.98S FOG
MONROE         FOG       32  32 100 W8        30.00S VSB 3/4 WCI  25
JANESVILLE     CLOUDY    34  34 100 W8        30.01S WCI  27
$$

WIZ051-052-058>065-066-070>072-180800-
SOUTHEAST WISCONSIN

CITY           SKY/WX    TMP DP  RH WIND       PRES   REMARKS
MILWAUKEE      CLOUDY    36  33  89 W7        29.98S WCI  30
WAUKESHA       CLOUDY    32  32 100 W7        29.99S FOG     WCI  26
MILWAUKEE/TIMM CLOUDY    34  32  93 W6        29.99S FOG     WCI  29
RACINE         CLOUDY    35  33  92 W7        30.01R FOG     WCI  29
KENOSHA        CLOUDY    34  33  96 W8        30.00R FOG     WCI  27
FOND DU LAC    CLOUDY    34  32  92 W6        29.97R FOG     WCI  29
SHEBOYGAN      CLOUDY    34  32  92 W7        29.96R FOG     WCI  28
WEST BEND      CLOUDY    34  34 100 W3        29.97S FOG
JUNEAU         FOG       33  33  99 W5        29.99R VSB 3/4 WCI  28
$$

LSZ147-162-180800-
LAKE SUPERIOR

STATION/POSITION TIME  TEMP    WIND        PRES    WAVE
                       AIR SEA DIR/SP/G            HT/PER
                 (UTC) (F)     (DEG/KT/KT) (MB)    (FT/S)
DEVILS ISLAND    0700   32     230/ 18/ 20 1011.2F
PORT WING        0640   27     190/  5/ 10 1011.5F
SAXON HARBOR     0630   29     200/  6/ 10 1011.2F
$$

LMZ867-665-643>646-180800-
LAKE MICHIGAN

STATION/POSITION TIME  TEMP    WIND        PRES    WAVE
                       AIR SEA DIR/SP/G            HT/PER
                 (UTC) (F)     (DEG/KT/KT) (MB)    (FT/S)
NORTHPORT PIER   0640   33      CALM  /  1 1013.5S
SISTER BAY       0520   32        CALM       N/A
KEWAUNEE LAKESHO 0642   33     290/  3/  4 1013.6R
SHEBOYGAN LAKESH 0700   34     300/  7/  8 1015.3R
PORT WASHINGTON  0640   35     280/  5/  8 1015.9R
MILWAUKEE LAKESH 0650   35     270/ 10/ 12   N/A
KENOSHA   LAKESH 0700   35     280/  8/ 12 1015.9
$$

TC  - TEMPERATURE IN CELSIUS
VSB - VISIBILITY IN STATUTE MILES
WCI - WIND CHILL INDEX
HX  - HEAT INDEX




USA.gov is the U.S. government's official web portal to all federal, state and local government web resources and services.